Location: De Har
(53.3413°N, 6.6858°E)
Time: 19:33:16
(UTC+00:00)

Cosmos 1627 Rocket - Pass Details

Date: 22 April 2026
Orbit: 950 x 1002 km, 82.9° (Epoch: 21 May)

Event Time Altitude Azimuth Distance (km) Brightness Sun altitude
Rises 00:37:32 0° 348° (NNW) 3,679 8.5 -23.0°
Reaches altitude 10° 00:40:03 10° 347° (NNW) 2,735 7.6 -22.9°
Maximum altitude 00:46:19 79° 263° (W) 1,010 4.4 -22.6°
Enters shadow 00:48:30 44° 185° (S) 1,346 4.8 -22.5°
